TimePST,TemperatureF,Dew PointF,Humidity,Sea Level PressureIn,VisibilityMPH,Wind Direction,Wind SpeedMPH,Gust SpeedMPH,PrecipitationIn,Events,Conditions,WindDirDegrees,DateUTC
12:53 AM,27.0,21.9,81,30.47,10.0,ESE,5.8,-,N/A,,Scattered Clouds,120,2013-01-13 08:53:00
1:32 AM,26.6,21.2,80,30.43,10.0,SE,5.8,-,N/A,,Mostly Cloudy,130,2013-01-13 09:32:00
1:53 AM,26.1,21.0,81,30.47,10.0,ESE,5.8,-,N/A,,Mostly Cloudy,120,2013-01-13 09:53:00
2:53 AM,27.0,21.0,78,30.47,10.0,ESE,3.5,-,N/A,,Mostly Cloudy,120,2013-01-13 10:53:00
3:53 AM,26.1,21.0,81,30.46,10.0,ESE,4.6,-,N/A,,Mostly Cloudy,120,2013-01-13 11:53:00
4:12 AM,24.8,19.4,80,30.42,10.0,ESE,4.6,-,N/A,,Scattered Clouds,120,2013-01-13 12:12:00
4:53 AM,25.0,19.0,78,30.46,10.0,ESE,3.5,-,N/A,,Partly Cloudy,120,2013-01-13 12:53:00
5:53 AM,24.1,19.0,81,30.47,10.0,SE,5.8,-,N/A,,Partly Cloudy,130,2013-01-13 13:53:00
6:53 AM,25.0,19.0,78,30.48,10.0,ESE,6.9,-,N/A,,Partly Cloudy,120,2013-01-13 14:53:00
7:53 AM,24.1,18.0,77,30.50,10.0,SE,4.6,-,N/A,,Mostly Cloudy,130,2013-01-13 15:53:00
8:53 AM,26.1,19.9,78,30.50,10.0,SE,4.6,-,N/A,,Mostly Cloudy,130,2013-01-13 16:53:00
9:53 AM,28.0,19.0,69,30.51,10.0,ESE,5.8,-,N/A,,Scattered Clouds,120,2013-01-13 17:53:00
10:53 AM,30.9,21.9,69,30.51,10.0,Calm,Calm,-,N/A,,Mostly Cloudy,0,2013-01-13 18:53:00
11:53 AM,34.0,23.0,64,30.49,10.0,Calm,Calm,-,N/A,,Scattered Clouds,0,2013-01-13 19:53:00
12:53 PM,35.1,23.0,61,30.48,10.0,Calm,Calm,-,N/A,,Overcast,0,2013-01-13 20:53:00
1:53 PM,35.1,24.1,64,30.48,10.0,Calm,Calm,-,N/A,,Mostly Cloudy,0,2013-01-13 21:53:00
2:53 PM,35.1,25.0,67,30.48,10.0,WNW,3.5,-,N/A,,Mostly Cloudy,300,2013-01-13 22:53:00
3:53 PM,35.1,23.0,61,30.48,10.0,Calm,Calm,-,N/A,,Mostly Cloudy,0,2013-01-13 23:53:00
4:53 PM,33.1,19.9,59,30.49,10.0,North,3.5,-,N/A,,Mostly Cloudy,360,2013-01-14 00:53:00
5:53 PM,32.0,19.9,61,30.50,10.0,Calm,Calm,-,N/A,,Mostly Cloudy,0,2013-01-14 01:53:00
6:53 PM,30.0,21.0,69,30.49,10.0,Calm,Calm,-,N/A,,Partly Cloudy,0,2013-01-14 02:53:00
7:53 PM,32.0,21.9,66,30.51,10.0,Calm,Calm,-,N/A,,Mostly Cloudy,0,2013-01-14 03:53:00
8:53 PM,30.9,21.9,69,30.51,10.0,ESE,4.6,-,N/A,,Mostly Cloudy,120,2013-01-14 04:53:00
9:53 PM,28.9,21.9,75,30.51,10.0,ESE,3.5,-,N/A,,Scattered Clouds,120,2013-01-14 05:53:00
10:53 PM,28.9,21.9,75,30.52,10.0,SE,6.9,-,N/A,,Scattered Clouds,130,2013-01-14 06:53:00
11:53 PM,28.9,23.0,78,30.50,10.0,SE,6.9,-,N/A,,Mostly Cloudy,130,2013-01-14 07:53:00